Location: Gleizolles
(44.4833°N, 6.7667°E)
Time: 03:59:17
(UTC+00:00)

N. Korean satellite - Pass Details

Date: 11 December 2021
Orbit: 447 x 491 km, 97.3° (Epoch: 23 January)

Event Time Altitude Azimuth Distance (km) Brightness Sun altitude
Rises 16:45:40 0° 199° (SSW) 2,502 10.9 -9.1°
Reaches altitude 10° 16:48:07 10° 217° (SW) 1,621 10.3 -9.5°
Maximum altitude 16:50:43 20° 266° (W) 1,142 9.5 -9.9°
Drops below altitude 10° 16:53:19 10° 315° (NW) 1,612 9.5 -10.4°
Sets 16:55:46 0° 333° (NNW) 2,484 10.2 -10.8°
